This is the latest recevied weather packets stored in our database for station/object K9RJT. If no packets are shown the sender has not sent any weather packets the latest 10 day(s).
| Time | Temp. | Humidity | Pressure | Rain* | Wind** | Luminosity | Snow |
|---|---|---|---|---|---|---|---|
| 1777507898 | 19.44° C | 33% | 1014.9 hPa | 0 mm | - | 234 W/m² | - |
| 1777507595 | 20° C | 33% | 1014.8 hPa | 0 mm | - | 245 W/m² | - |
| 1777507292 | 20° C | 33% | 1014.7 hPa | 0 mm | - | 259 W/m² | - |
| 1777506989 | 20° C | 33% | 1014.8 hPa | 0 mm | - | 269 W/m² | - |
| 1777506686 | 20° C | 33% | 1014.8 hPa | 0 mm | - | 281 W/m² | - |
| 1777506383 | 20° C | 33% | 1014.8 hPa | 0 mm | - | 293 W/m² | - |
| 1777506079 | 20° C | 33% | 1015 hPa | 0 mm | - | 306 W/m² | - |
| 1777505774 | 19.44° C | 33% | 1014.9 hPa | 0 mm | - | 318 W/m² | - |
| 1777505472 | 20° C | 32% | 1015.1 hPa | 0 mm | - | 331 W/m² | - |
| 1777505168 | 18.89° C | 34% | 1015.1 hPa | 0 mm | - | 344 W/m² | - |
| 1777504865 | 20° C | 33% | 1015 hPa | 0 mm | - | 356 W/m² | - |
| 1777504562 | 20° C | 33% | 1015.1 hPa | 0 mm | - | 369 W/m² | - |
| 1777504258 | 19.44° C | 33% | 1015.1 hPa | 0 mm | - | 382 W/m² | - |
| 1777503954 | 18.89° C | 33% | 1015.1 hPa | 0 mm | - | 392 W/m² | - |
| 1777503650 | 18.89° C | 33% | 1015.1 hPa | 0 mm | - | 405 W/m² | - |
| 1777503347 | 19.44° C | 33% | 1015.5 hPa | 0 mm | - | 418 W/m² | - |
| 1777503043 | 19.44° C | 33% | 1015.7 hPa | 0 mm | - | 429 W/m² | - |
| 1777502741 | 18.89° C | 35% | 1015.4 hPa | 0 mm | - | 441 W/m² | - |
| 1777502437 | 18.89° C | 35% | 1015.4 hPa | 0 mm | - | 451 W/m² | - |
| 1777502134 | 19.44° C | 33% | 1015.5 hPa | 0 mm | - | 463 W/m² | - |
| 1777501832 | 19.44° C | 35% | 1015.9 hPa | 0 mm | - | 474 W/m² | - |
| 1777501529 | 19.44° C | 34% | 1016 hPa | 0 mm | - | 487 W/m² | - |
| 1777501226 | 18.89° C | 36% | 1015.8 hPa | 0 mm | - | 497 W/m² | - |
| 1777500924 | 19.44° C | 36% | 1015.7 hPa | 0 mm | - | 505 W/m² | - |
| 1777500621 | 18.89° C | 36% | 1015.7 hPa | 0 mm | - | 516 W/m² | - |
* Rain latest hour (hover to see other rain measurements)
** Current wind speed in m/s (hover to see current wind gust speed)